When you browse on this site, cookies collect data to enhance your experience and personalize the content and advertising you see.
Visit our Privacy Policy to learn more. By continuing to use the site, you agree to this use of cookies and data.
  • In United Kingdom
  • List of Countries
  • For 7 days
  • Water Temperature
  • Weather Map
  • Weather Widgets
  • user-avatar
    Login

    Hourly Weather Stirling

    Today, 3 June, Wednesday

    Time Temperature Precipitation Wind Pressure Humidity
    00:00 +11°C° 0 mm 3 mps 761 mmHg 95%
    01:00 +11°C° 0.9 mm 3 mps 761 mmHg 95%
    02:00 +10°C° 0.9 mm 3 mps 761 mmHg 94%
    03:00 +10°C° 0.9 mm 3 mps 761 mmHg 93%
    04:00 +10°C° 0 mm 3 mps 761 mmHg 91%
    05:00 +9°C° 0 mm 3 mps 761 mmHg 88%
    06:00 +9°C° 0 mm 3 mps 762 mmHg 86%
    07:00 +10°C° 0 mm 4 mps 761 mmHg 79%
    08:00 +11°C° 0 mm 4 mps 761 mmHg 71%
    09:00 +12°C° 0 mm 4 mps 761 mmHg 64%
    10:00 +13°C° 0 mm 5 mps 761 mmHg 62%
    11:00 +13°C° 0 mm 5 mps 761 mmHg 61%
    12:00 +13°C° 0 mm 5 mps 761 mmHg 59%
    13:00 +13°C° 0 mm 5 mps 761 mmHg 59%
    14:00 +13°C° 0 mm 4 mps 760 mmHg 59%
    15:00 +14°C° 0 mm 4 mps 760 mmHg 59%
    16:00 +13°C° 0 mm 4 mps 760 mmHg 60%
    17:00 +13°C° 0 mm 3 mps 759 mmHg 62%
    18:00 +13°C° 0 mm 3 mps 759 mmHg 64%
    19:00 +13°C° 0 mm 2 mps 759 mmHg 67%
    20:00 +10°C° 0 mm 2 mps 759 mmHg 71%
    21:00 +9°C° 0 mm 2 mps 759 mmHg 75%
    22:00 +9°C° 0 mm 1 mps 759 mmHg 77%
    23:00 +8°C° 0 mm 1 mps 758 mmHg 78%

    Tomorrow, 4 June, Thursday

    Time Temperature Precipitation Wind Pressure Humidity
    00:00 +8°C° 0 mm 1 mps 758 mmHg 79%
    01:00 +7°C° 0 mm 1 mps 757 mmHg 81%
    02:00 +6°C° 0 mm 0 mps 757 mmHg 83%
    03:00 +5°C° 0 mm 0 mps 756 mmHg 84%
    04:00 +7°C° 0 mm 1 mps 755 mmHg 82%
    05:00 +8°C° 0 mm 1 mps 755 mmHg 80%
    06:00 +9°C° 0 mm 1 mps 754 mmHg 77%
    07:00 +11°C° 0 mm 1 mps 754 mmHg 72%
    08:00 +12°C° 0 mm 1 mps 753 mmHg 67%
    09:00 +13°C° 0 mm 1 mps 753 mmHg 62%
    10:00 +13°C° 0.1 mm 1 mps 752 mmHg 66%
    11:00 +13°C° 0.1 mm 1 mps 752 mmHg 69%
    12:00 +13°C° 0.1 mm 1 mps 752 mmHg 73%
    13:00 +13°C° 0.3 mm 1 mps 751 mmHg 74%
    14:00 +14°C° 0.3 mm 1 mps 750 mmHg 75%
    15:00 +14°C° 0.3 mm 1 mps 750 mmHg 76%
    16:00 +14°C° 0.4 mm 2 mps 750 mmHg 79%
    17:00 +13°C° 0.4 mm 2 mps 749 mmHg 81%
    18:00 +13°C° 0.4 mm 2 mps 749 mmHg 84%
    19:00 +10°C° 0.4 mm 2 mps 749 mmHg 87%
    20:00 +9°C° 0.4 mm 2 mps 749 mmHg 91%
    21:00 +9°C° 0.4 mm 1 mps 749 mmHg 94%
    22:00 +9°C° 0.1 mm 1 mps 749 mmHg 93%
    23:00 +8°C° 0.1 mm 1 mps 749 mmHg 92%

    Day after tomorrow, 5 June, Friday

    Time Temperature Precipitation Wind Pressure Humidity
    00:00 +8°C° 0.1 mm 1 mps 749 mmHg 92%
    01:00 +7°C° 0.1 mm 1 mps 749 mmHg 91%
    02:00 +6°C° 0.1 mm 1 mps 749 mmHg 90%
    03:00 +5°C° 0.1 mm 2 mps 748 mmHg 89%
    04:00 +5°C° 0 mm 2 mps 748 mmHg 88%
    05:00 +6°C° 0 mm 2 mps 748 mmHg 86%
    06:00 +7°C° 0 mm 2 mps 747 mmHg 85%
    07:00 +8°C° 0 mm 3 mps 747 mmHg 78%
    08:00 +8°C° 0 mm 4 mps 747 mmHg 71%
    09:00 +9°C° 0 mm 5 mps 747 mmHg 64%
    10:00 +10°C° 0.2 mm 5 mps 746 mmHg 62%
    11:00 +10°C° 0.2 mm 6 mps 746 mmHg 61%
    12:00 +11°C° 0.2 mm 6 mps 746 mmHg 59%
    13:00 +11°C° 0.4 mm 7 mps 745 mmHg 59%
    14:00 +11°C° 0.4 mm 8 mps 745 mmHg 60%
    15:00 +11°C° 0.4 mm 8 mps 745 mmHg 61%
    16:00 +10°C° 0.1 mm 8 mps 745 mmHg 60%
    17:00 +10°C° 0.1 mm 8 mps 745 mmHg 60%
    18:00 +9°C° 0.1 mm 8 mps 744 mmHg 59%
    19:00 +7°C° 0 mm 8 mps 744 mmHg 62%
    20:00 +6°C° 0 mm 7 mps 744 mmHg 65%
    21:00 +5°C° 0 mm 6 mps 744 mmHg 68%
    22:00 +5°C° 0.1 mm 7 mps 743 mmHg 73%
    23:00 +5°C° 0.1 mm 7 mps 743 mmHg 78%

    6 June, Saturday

    Time Temperature Precipitation Wind Pressure Humidity
    00:00 +5°C° 0.1 mm 7 mps 742 mmHg 83%
    01:00 +6°C° 0.2 mm 7 mps 742 mmHg 85%
    02:00 +7°C° 0.2 mm 6 mps 742 mmHg 87%
    03:00 +7°C° 0.2 mm 6 mps 742 mmHg 89%
    04:00 +8°C° 0.1 mm 6 mps 741 mmHg 88%
    05:00 +8°C° 0.1 mm 6 mps 741 mmHg 87%
    06:00 +9°C° 0.1 mm 5 mps 741 mmHg 87%
    07:00 +9°C° 0.1 mm 5 mps 741 mmHg 85%
    08:00 +10°C° 0.1 mm 6 mps 742 mmHg 84%
    09:00 +10°C° 0.1 mm 6 mps 742 mmHg 82%
    10:00 +11°C° 0.1 mm 6 mps 742 mmHg 77%
    11:00 +13°C° 0.1 mm 5 mps 742 mmHg 72%
    12:00 +14°C° 0.1 mm 5 mps 742 mmHg 66%
    13:00 +14°C° 0.4 mm 5 mps 743 mmHg 68%
    14:00 +14°C° 0.4 mm 5 mps 743 mmHg 70%
    15:00 +14°C° 0.4 mm 5 mps 743 mmHg 72%
    16:00 +14°C° 0.2 mm 5 mps 744 mmHg 72%
    17:00 +14°C° 0.2 mm 5 mps 745 mmHg 72%
    18:00 +14°C° 0.2 mm 4 mps 745 mmHg 72%
    19:00 +12°C° 0 mm 4 mps 746 mmHg 75%
    20:00 +11°C° 0 mm 3 mps 747 mmHg 78%
    21:00 +9°C° 0 mm 2 mps 748 mmHg 81%
    22:00 +9°C° 0 mm 2 mps 748 mmHg 82%
    23:00 +9°C° 0 mm 2 mps 748 mmHg 83%

    7 June, Sunday

    Time Temperature Precipitation Wind Pressure Humidity
    00:00 +8°C° 0 mm 2 mps 748 mmHg 84%
    01:00 +9°C° 0.1 mm 2 mps 748 mmHg 86%
    02:00 +9°C° 0.1 mm 3 mps 748 mmHg 88%
    03:00 +9°C° 0.1 mm 3 mps 748 mmHg 89%
    04:00 +10°C° 0.1 mm 3 mps 749 mmHg 90%
    05:00 +10°C° 0.1 mm 3 mps 749 mmHg 90%
    06:00 +10°C° 0.1 mm 3 mps 749 mmHg 90%
    07:00 +12°C° 0 mm 3 mps 750 mmHg 85%
    08:00 +13°C° 0 mm 3 mps 750 mmHg 79%
    09:00 +15°C° 0 mm 4 mps 751 mmHg 73%
    10:00 +17°C° 0 mm 4 mps 751 mmHg 71%
    11:00 +17°C° 0 mm 4 mps 752 mmHg 68%
    12:00 +17°C° 0 mm 5 mps 752 mmHg 66%
    13:00 +17°C° 0 mm 5 mps 753 mmHg 65%
    14:00 +17°C° 0 mm 5 mps 753 mmHg 63%
    15:00 +17°C° 0 mm 5 mps 754 mmHg 62%
    16:00 +17°C° 0 mm 5 mps 754 mmHg 64%
    17:00 +17°C° 0 mm 5 mps 755 mmHg 66%
    18:00 +17°C° 0 mm 4 mps 755 mmHg 68%
    19:00 +15°C° 0 mm 4 mps 756 mmHg 71%
    20:00 +13°C° 0 mm 4 mps 756 mmHg 75%
    21:00 +11°C° 0 mm 3 mps 757 mmHg 79%
    22:00 +10°C° 0 mm 3 mps 757 mmHg 80%
    23:00 +9°C° 0 mm 2 mps 758 mmHg 82%

    8 June, Monday

    Time Temperature Precipitation Wind Pressure Humidity
    00:00 +9°C° 0 mm 2 mps 758 mmHg 83%
    01:00 +8°C° 0 mm 2 mps 758 mmHg 84%
    02:00 +8°C° 0 mm 2 mps 758 mmHg 84%
    03:00 +8°C° 0 mm 2 mps 759 mmHg 85%
    04:00 +9°C° 0 mm 2 mps 759 mmHg 82%
    05:00 +10°C° 0 mm 2 mps 759 mmHg 80%
    06:00 +12°C° 0 mm 2 mps 759 mmHg 77%
    07:00 +13°C° 0 mm 2 mps 760 mmHg 73%
    08:00 +14°C° 0 mm 2 mps 760 mmHg 69%
    09:00 +16°C° 0 mm 2 mps 760 mmHg 65%
    10:00 +16°C° 0 mm 2 mps 761 mmHg 67%
    11:00 +15°C° 0 mm 2 mps 761 mmHg 68%
    12:00 +15°C° 0 mm 2 mps 761 mmHg 70%
    13:00 +15°C° 0.1 mm 2 mps 761 mmHg 72%
    14:00 +15°C° 0.1 mm 2 mps 761 mmHg 75%
    15:00 +15°C° 0.1 mm 2 mps 761 mmHg 77%
    16:00 +14°C° 0.1 mm 2 mps 761 mmHg 79%
    17:00 +13°C° 0.1 mm 2 mps 761 mmHg 82%
    18:00 +12°C° 0.1 mm 2 mps 761 mmHg 84%
    19:00 +12°C° 0 mm 2 mps 762 mmHg 86%
    20:00 +10°C° 0 mm 2 mps 762 mmHg 87%
    21:00 +10°C° 0 mm 2 mps 762 mmHg 88%
    22:00 +9°C° 0 mm 2 mps 762 mmHg 88%
    23:00 +10°C° 0 mm 1 mps 762 mmHg 88%
    Show more